[[{"header":{"parameterUnit":"m.s-1","parameterCategory":2,"la1":30.2992,"la2":30.254,"lo1":-89.0895,"lo2":-89.0443,"dy":0.0025,"dx":0.0025,"nx":19,"ny":19,"refTime":"2026-03-23T09:00:00:Z","depth":"0","parameterNumber":2,"parameterNumberName":"U-component_of_CURRENTS"},"data":[0,0,0,0.2114,0.2115,0.2171,0.2171,0.2304,0.2305,0,0,0,0,0,0,0,0,0,0,0,0.209,0.2091,0.2114,0.2115,0.2171,0.2171,0.2304,0.2305,0,0,0,0,0,0,0,0,0,0,0,0.209,0.209,0.2091,0.2116,0.2171,0.2171,0.2303,0.2246,0,0,0,0,0,0,0,0,0,0,0.2185,0.2153,0.209,0.2091,0.2116,0.2171,0.2171,0.2243,0.225,0.2295,0,0.2299,0,0.2309,0.2315,0.2316,0,0,0,0.2118,0.2147,0.2163,0.2091,0.2116,0.2171,0.2147,0.2247,0.2255,0.2305,0.2301,0.2305,0.2311,0.2316,0.2317,0.2515,0.2516,0,0,0.2114,0.2104,0.2158,0.2168,0.2127,0.2145,0.2148,0.2251,0.2258,0.2301,0.2308,0.2313,0.2317,0.2318,0.2514,0.2515,0,0,0,0.2104,0.2101,0.2114,0.2163,0.217,0.2146,0.215,0.2253,0.2258,0.231,0.2315,0.2318,0.232,0.2513,0.2514,0.2583,0,0,0,0.2102,0.2096,0.2112,0.2107,0.2168,0.2205,0.2151,0.225,0.2262,0.2314,0.2318,0.2321,0.2511,0.2513,0.2579,0.2566,0,0,0,0.2089,0.2094,0.2099,0.2106,0.213,0.2203,0.2213,0.2252,0.2266,0.2316,0.2322,0.2511,0.2513,0.2575,0.2561,0.2579,0,0,0,0.2079,0.2101,0.2098,0.2138,0.2129,0.2212,0.2212,0.227,0.2314,0.2319,0.2512,0.2514,0.2574,0.2558,0.2577,0.2485,0.249,0,0,0.2106,0.2104,0.2132,0.2131,0.2211,0.2205,0.2319,0.2362,0.2372,0.248,0.2484,0.258,0.2561,0.2579,0.2628,0.2628,0,0,0,0.2141,0.2165,0.2189,0.2233,0.2277,0.2341,0.2391,0.2431,0.2523,0.2409,0.2611,0.2596,0.2605,0.2546,0.2548,0.2438,0.2525,0.2525,0.2525,0.2183,0.2213,0.2266,0.2319,0.237,0.2455,0.2518,0.2587,0.2601,0.2657,0.2678,0.2767,0.2709,0.2708,0.2599,0.2729,0.273,0.273,0.273,0.2255,0.2283,0.2323,0.2378,0.2437,0.2521,0.2648,0.2682,0.2798,0.2783,0.279,0.2653,0.2713,0.2596,0.2735,0.2734,0.2733,0.2733,0.2733,0.2299,0.2303,0.233,0.238,0.2449,0.2531,0.2597,0.2718,0.2812,0.286,0.2768,0.2765,0.2634,0.2863,0.2863,0.2863,0.2863,0.2864,0.2864,0.2301,0.2327,0.232,0.2376,0.2371,0.2421,0.2569,0.2634,0.2744,0.2808,0.2807,0.2653,0.2806,0.2769,0.2865,0.2865,0.2864,0.2864,0.2864,0.2307,0.2286,0.2274,0.2257,0.2255,0.2227,0.2391,0.2497,0.2613,0.2643,0.2613,0.2782,0.2735,0.2732,0.2693,0.2763,0.2763,0.2763,0.2763,0.2263,0.2272,0.2175,0.2112,0.2086,0.2122,0.2095,0.2242,0.2412,0.2457,0.2514,0.2464,0.2473,0.2407,0.2412,0.2366,0.2351,0.2351,0.235,0.221,0.2189,0.2081,0.2023,0.1975,0.1962,0.1895,0.195,0.2197,0.2326,0.2384,0.2402,0.2324,0.2346,0.2238,0.2254,0.2176,0,0]},{"header":{"parameterUnit":"m.s-1","parameterCategory":2,"la1":30.2992,"la2":30.254,"lo1":-89.0895,"lo2":-89.0443,"dy":0.0025,"dx":0.0025,"nx":19,"ny":19,"refTime":"2026-03-23T09:00:00:Z","depth":"0","parameterNumber":3,"parameterNumberName":"V-component_of_CURRENTS"},"data":[0,0,0,0.0132,0.0131,0.0066,0.0066,0.0067,0.0067,0,0,0,0,0,0,0,0,0,0,0,0.0154,0.0154,0.0132,0.0131,0.0067,0.0066,0.0067,0.0067,0,0,0,0,0,0,0,0,0,0,0,0.0154,0.0154,0.0154,0.0131,0.0067,0.0066,0.0067,0.0091,0,0,0,0,0,0,0,0,0,0,0.0142,0.0159,0.0154,0.0154,0.0131,0.0067,0.0066,0.0091,0.009,0.0125,0,0.0122,0,0.0105,0.0071,0.0071,0,0,0,0.0116,0.016,0.0143,0.0154,0.0131,0.0067,0.0091,0.009,0.0088,0.0124,0.0122,0.0122,0.0105,0.0071,0.0071,0.0283,0.0285,0,0,0.0119,0.0141,0.0144,0.0142,0.0126,0.0094,0.009,0.0087,0.0094,0.0122,0.0121,0.0105,0.0071,0.0072,0.0281,0.0283,0,0,0,0.014,0.0144,0.0125,0.0143,0.013,0.0092,0.0087,0.0093,0.0087,0.0121,0.0105,0.0072,0.0072,0.0279,0.0282,0.044,0,0,0,0.0141,0.0157,0.0127,0.0139,0.013,0.0101,0.0093,0.0086,0.0085,0.0105,0.0072,0.0073,0.0277,0.028,0.0431,0.048,0,0,0,0.0155,0.0158,0.0154,0.014,0.0119,0.01,0.0092,0.0085,0.0078,0.0071,0.0073,0.0275,0.028,0.0423,0.0467,0.0518,0,0,0,0.0174,0.0236,0.0155,0.0231,0.012,0.0197,0.0091,0.014,0.0152,0.0072,0.0277,0.0281,0.0421,0.046,0.0511,0.0492,0.0522,0,0,0.0278,0.0249,0.0301,0.0228,0.0326,0.0204,0.0333,0.0289,0.0233,0.0275,0.0279,0.0434,0.0466,0.0516,0.0757,0.0779,0,0,0,0.0353,0.0384,0.0406,0.0429,0.0439,0.0456,0.0412,0.0411,0.0443,0.0261,0.0484,0.0499,0.0525,0.0501,0.0521,0.0351,0.0303,0.0302,0.0302,0.0506,0.0507,0.0596,0.0604,0.0648,0.0652,0.0685,0.0676,0.0608,0.0666,0.0667,0.0864,0.0847,0.0859,0.0688,0.072,0.0721,0.0722,0.0722,0.0657,0.0701,0.071,0.0789,0.0803,0.0888,0.0934,0.0907,0.0967,0.0877,0.0893,0.0718,0.0889,0.0699,0.0733,0.0731,0.073,0.0729,0.0728,0.0731,0.0753,0.0781,0.087,0.0964,0.1005,0.1114,0.1125,0.1097,0.1144,0.1051,0.1047,0.0837,0.1136,0.1137,0.1137,0.1138,0.1138,0.1138,0.0775,0.0811,0.0865,0.0957,0.1012,0.1113,0.1208,0.1249,0.1258,0.1219,0.1218,0.0909,0.0988,0.0923,0.1146,0.1145,0.1144,0.1143,0.1143,0.0855,0.0845,0.0926,0.0976,0.1111,0.1216,0.1305,0.1373,0.1395,0.1394,0.109,0.1245,0.1172,0.1154,0.1095,0.1348,0.1348,0.1348,0.1348,0.0878,0.0893,0.0954,0.1031,0.1158,0.1259,0.1379,0.1439,0.1298,0.1172,0.1081,0.0976,0.0975,0.0882,0.0871,0.0801,0.0975,0.0974,0.0973,0.0908,0.0917,0.0954,0.1025,0.1165,0.1293,0.1385,0.1463,0.1206,0.0939,0.0857,0.0873,0.0695,0.0707,0.0535,0.0534,0.0409,0,0]}],[{"header":{"parameterUnit":"m.s-1","parameterCategory":2,"la1":30.2992,"la2":30.254,"lo1":-89.0895,"lo2":-89.0443,"dy":0.0025,"dx":0.0025,"nx":19,"ny":19,"refTime":"2026-03-23T09:00:00:Z","depth":"2","parameterNumber":2,"parameterNumberName":"U-component_of_CURRENTS"},"data":[0,0,0,0.2085,0.2087,0.2205,0.2206,0.2318,0.2319,0,0,0,0,0,0,0,0,0,0,0,0.2039,0.204,0.2084,0.2088,0.2205,0.2206,0.2318,0.2319,0,0,0,0,0,0,0,0,0,0,0,0.2038,0.2039,0.2041,0.2088,0.2205,0.2206,0.2318,0.2236,0,0,0,0,0,0,0,0,0,0,0.2126,0.2095,0.2039,0.2041,0.2089,0.2205,0.2206,0.2233,0.2241,0.2256,0,0.2281,0,0.2309,0.2326,0.2327,0,0,0,0.208,0.2088,0.212,0.2041,0.209,0.2205,0.215,0.2238,0.2248,0.2268,0.2283,0.2288,0.2311,0.2327,0.2328,0.2443,0.2444,0,0,0.2073,0.2059,0.2113,0.2126,0.213,0.2146,0.2154,0.2244,0.2257,0.2284,0.2291,0.2313,0.2328,0.2329,0.2443,0.2444,0,0,0,0.206,0.2054,0.2085,0.2121,0.2149,0.215,0.2158,0.2253,0.2264,0.2292,0.2314,0.2329,0.233,0.2443,0.2443,0.255,0,0,0,0.2056,0.2047,0.2082,0.2074,0.2148,0.2209,0.2165,0.2257,0.2268,0.2314,0.2329,0.2331,0.2442,0.2443,0.2546,0.2604,0,0,0,0.2032,0.2045,0.2061,0.2073,0.2129,0.2208,0.2224,0.226,0.2282,0.2327,0.2331,0.2442,0.2443,0.2543,0.2597,0.2653,0,0,0,0.2009,0.204,0.2061,0.2119,0.2128,0.2222,0.2224,0.2299,0.2342,0.2329,0.2442,0.2443,0.2542,0.2593,0.2648,0.2342,0.2337,0,0,0.2032,0.2043,0.2081,0.2103,0.2184,0.2205,0.2301,0.2354,0.2358,0.2407,0.241,0.2548,0.2596,0.2652,0.2403,0.2396,0,0,0,0.2078,0.2112,0.2141,0.2201,0.2256,0.2338,0.2375,0.2405,0.248,0.2391,0.2539,0.2566,0.2598,0.2403,0.2398,0.2448,0.2448,0.2448,0.2448,0.2104,0.2146,0.2206,0.227,0.234,0.2431,0.2514,0.2561,0.2532,0.258,0.2646,0.2753,0.2546,0.2539,0.2631,0.2632,0.2632,0.2633,0.2633,0.2128,0.2175,0.2246,0.2328,0.2426,0.2528,0.2651,0.2679,0.2789,0.2729,0.2755,0.2516,0.2539,0.2641,0.264,0.2638,0.2637,0.2637,0.2636,0.2127,0.2156,0.2216,0.2339,0.2481,0.26,0.2734,0.2824,0.2888,0.2961,0.2705,0.2698,0.2827,0.2954,0.2954,0.2955,0.2955,0.2956,0.2956,0.21,0.2151,0.2241,0.2369,0.2475,0.2613,0.2783,0.2847,0.2832,0.2801,0.2797,0.2861,0.2851,0.2845,0.2964,0.2963,0.2962,0.2961,0.296,0.2103,0.2172,0.2268,0.2368,0.2522,0.2538,0.2694,0.2652,0.2736,0.2665,0.2696,0.27,0.2635,0.2632,0.2619,0.2674,0.2674,0.2674,0.2674,0.2129,0.2162,0.2284,0.2369,0.246,0.2491,0.2345,0.2191,0.2247,0.2228,0.2248,0.2082,0.2102,0.2,0.2012,0.1983,0.1874,0.1872,0.1871,0.2137,0.2201,0.2243,0.2326,0.2402,0.2374,0.2039,0.1608,0.1621,0.1847,0.2188,0.2605,0.2405,0.242,0.2295,0.2302,0.2268,0,0]},{"header":{"parameterUnit":"m.s-1","parameterCategory":2,"la1":30.2992,"la2":30.254,"lo1":-89.0895,"lo2":-89.0443,"dy":0.0025,"dx":0.0025,"nx":19,"ny":19,"refTime":"2026-03-23T09:00:00:Z","depth":"2","parameterNumber":3,"parameterNumberName":"V-component_of_CURRENTS"},"data":[0,0,0,-0.0006,-0.0006,-0.0039,-0.0039,-0.0108,-0.0108,0,0,0,0,0,0,0,0,0,0,0,-0.0004,-0.0004,-0.0006,-0.0006,-0.0039,-0.0039,-0.0108,-0.0108,0,0,0,0,0,0,0,0,0,0,0,-0.0004,-0.0004,-0.0004,-0.0005,-0.0039,-0.0039,-0.0108,-0.0083,0,0,0,0,0,0,0,0,0,0,-0.005,-0.0035,-0.0004,-0.0004,-0.0005,-0.0038,-0.0039,-0.0081,-0.0084,-0.0092,0,-0.0086,0,-0.0082,-0.0111,-0.0111,0,0,0,-0.0032,-0.0033,-0.0034,-0.0004,-0.0005,-0.0038,-0.0031,-0.0083,-0.0086,-0.0096,-0.0086,-0.0089,-0.0084,-0.0111,-0.0112,-0.006,-0.0059,0,0,-0.003,-0.0022,-0.0032,-0.0036,0.0001,-0.003,-0.0032,-0.0085,-0.0086,-0.0087,-0.009,-0.0085,-0.0112,-0.0112,-0.0061,-0.006,0,0,0,-0.0007,-0.0021,-0.0021,-0.0033,-0.0028,-0.003,-0.0033,-0.0085,-0.0082,-0.0091,-0.0085,-0.0112,-0.0112,-0.0062,-0.0061,0.0038,0,0,0,-0.0007,-0.0005,-0.002,-0.0018,-0.0026,-0.0052,-0.0031,-0.0079,-0.0084,-0.0085,-0.0112,-0.0113,-0.0063,-0.0061,0.0033,0.0073,0,0,0,-0.0005,-0.0005,-0.0003,-0.0017,-0.0017,-0.0051,-0.0053,-0.0081,-0.008,-0.0111,-0.0113,-0.0064,-0.0062,0.0029,0.0066,0.0102,0,0,0,-0.0006,0.0015,-0.0002,0.0018,-0.0016,0.0003,-0.0053,-0.0037,-0.0051,-0.0112,-0.0063,-0.0061,0.0028,0.0062,0.0098,0.0018,0.0031,0,0,0.0024,0.0019,0.0031,0.0015,0.0012,0.0005,0.0012,-0.0022,-0.0026,-0.0055,-0.0054,0.0035,0.0066,0.0101,0.0138,0.0147,0,0,0,0.0042,0.0045,0.0045,0.0035,0.0041,0.0051,0.0028,0.0032,0.0058,-0.0021,0.005,0.0066,0.0085,0.0029,0.0037,-0.0051,-0.0051,-0.0052,-0.0052,0.0076,0.0061,0.006,0.0052,0.0076,0.0078,0.012,0.0128,0.0096,0.0155,0.0158,0.0268,0.0211,0.0215,0.0171,0.0172,0.0172,0.0172,0.0172,0.0069,0.0047,0.0054,0.006,0.0082,0.012,0.0205,0.023,0.0296,0.0256,0.027,0.015,0.0229,0.0181,0.0179,0.0178,0.0177,0.0176,0.0176,0.0028,0.0018,0.004,0.0051,0.0123,0.0192,0.0322,0.0384,0.0408,0.0451,0.0344,0.0341,0.0308,0.0441,0.0442,0.0442,0.0442,0.0443,0.0443,-0.0029,-0.0014,0.0031,0.006,0.016,0.0278,0.0424,0.0474,0.0462,0.0447,0.0445,0.0358,0.0349,0.0323,0.0449,0.0448,0.0447,0.0446,0.0446,-0.0082,-0.0046,0.0021,0.0112,0.0293,0.0387,0.0508,0.0518,0.0524,0.0464,0.0436,0.0434,0.0386,0.0378,0.0352,0.0478,0.0478,0.0478,0.0478,-0.009,-0.009,0.0099,0.0272,0.04,0.0478,0.0554,0.0532,0.0472,0.0452,0.0454,0.0383,0.0381,0.0328,0.0321,0.0291,0.0403,0.0403,0.0403,-0.0089,-0.0033,0.0139,0.0305,0.05,0.0528,0.0568,0.0572,0.0458,0.0405,0.0489,0.0464,0.0357,0.0356,0.0268,0.0259,0.0209,0,0]}],[{"header":{"parameterUnit":"m.s-1","parameterCategory":2,"la1":30.2992,"la2":30.254,"lo1":-89.0895,"lo2":-89.0443,"dy":0.0025,"dx":0.0025,"nx":19,"ny":19,"refTime":"2026-03-23T09:00:00:Z","depth":"4","parameterNumber":2,"parameterNumberName":"U-component_of_CURRENTS"},"data":[0,0,0,0.0939,0.0941,0.1053,0.1053,0.1154,0.1155,0,0,0,0,0,0,0,0,0,0,0,0.0903,0.0904,0.0939,0.0942,0.1053,0.1053,0.1154,0.1155,0,0,0,0,0,0,0,0,0,0,0,0.0903,0.0904,0.0905,0.0942,0.1053,0.1053,0.1154,0.1079,0,0,0,0,0,0,0,0,0,0,0.0975,0.0945,0.0904,0.0905,0.0943,0.1053,0.1053,0.1075,0.1083,0.1094,0,0.1123,0,0.1143,0.1161,0.1162,0,0,0,0.0935,0.0939,0.0975,0.0905,0.0944,0.1053,0.1001,0.108,0.1089,0.1104,0.1125,0.1129,0.1145,0.1162,0.1163,0.1252,0.1252,0,0,0.0929,0.0914,0.0969,0.0981,0.0988,0.0997,0.1004,0.1086,0.1097,0.1125,0.1131,0.1147,0.1163,0.1163,0.1251,0.1252,0,0,0,0.0916,0.091,0.0945,0.0977,0.1002,0.1001,0.1009,0.1093,0.1107,0.1133,0.1148,0.1163,0.1164,0.1251,0.1252,0.1281,0,0,0,0.0912,0.0903,0.0943,0.0933,0.1001,0.1053,0.1014,0.1102,0.1112,0.1147,0.1163,0.1165,0.1251,0.1251,0.1279,0.1256,0,0,0,0.0895,0.0901,0.092,0.0933,0.0984,0.1053,0.1071,0.1104,0.1121,0.1162,0.1166,0.1251,0.1251,0.1278,0.1255,0.1314,0,0,0,0.0866,0.0897,0.092,0.0951,0.0984,0.1037,0.1071,0.112,0.1154,0.1164,0.1251,0.1251,0.1278,0.1254,0.1313,0.1146,0,0,0,0.0884,0.0899,0.0914,0.0937,0.0983,0.102,0.1073,0.1138,0.1167,0.1219,0.1222,0.128,0.1255,0.1314,0.1183,0,0,0,0,0.0904,0.0914,0.0932,0.0966,0.1011,0.1061,0.1121,0.1157,0.1233,0.1193,0.1284,0.1267,0.1304,0.1202,0.1254,0.1254,0.1254,0.1254,0.1254,0.0889,0.0913,0.0932,0.0972,0.1014,0.1095,0.1137,0.1198,0.1239,0.1283,0.1296,0.1359,0.1253,0.132,0.132,0.1321,0.1321,0.1321,0.1321,0.0877,0.0869,0.0916,0.0946,0.1012,0.1072,0.1173,0.1226,0.1316,0.1322,0.136,0.1244,0.1324,0.1323,0.1323,0.1322,0.1322,0.1322,0.1322,0.0833,0.083,0.0863,0.0908,0.0975,0.1072,0.1147,0.1237,0.1328,0.136,0.1304,0.1383,0.1377,0.1421,0.1421,0.1422,0.1422,0.1422,0.1422,0.0761,0.0791,0.0805,0.0864,0.0915,0.1002,0.1145,0.1207,0.1319,0.1293,0.139,0.1393,0.139,0.1383,0.1425,0.1424,0.1424,0.1424,0.1423,0.0679,0.0697,0.0723,0.0763,0.0867,0.0914,0.106,0.1156,0.122,0.1245,0.127,0.1277,0.1252,0.1252,0.1239,0.124,0.1238,0.1236,0,0.06,0.0616,0.0641,0.0706,0.0764,0.0865,0.0905,0.1,0.1112,0.1074,0.1236,0.126,0.1265,0.1232,0.123,0.121,0,0,0,0.0527,0.0552,0.0557,0.0648,0.0722,0.0806,0.0908,0.0918,0.1084,0.1102,0.1186,0.1199,0.1318,0.1432,0.1411,0.1407,0.1394,0,0]},{"header":{"parameterUnit":"m.s-1","parameterCategory":2,"la1":30.2992,"la2":30.254,"lo1":-89.0895,"lo2":-89.0443,"dy":0.0025,"dx":0.0025,"nx":19,"ny":19,"refTime":"2026-03-23T09:00:00:Z","depth":"4","parameterNumber":3,"parameterNumberName":"V-component_of_CURRENTS"},"data":[0,0,0,-0.0058,-0.0058,-0.0114,-0.0114,-0.0235,-0.0236,0,0,0,0,0,0,0,0,0,0,0,-0.0051,-0.0051,-0.0058,-0.0058,-0.0114,-0.0114,-0.0235,-0.0236,0,0,0,0,0,0,0,0,0,0,0,-0.0051,-0.0051,-0.0052,-0.0059,-0.0114,-0.0114,-0.0235,-0.0184,0,0,0,0,0,0,0,0,0,0,-0.0126,-0.0106,-0.0051,-0.0052,-0.0059,-0.0114,-0.0115,-0.0182,-0.0188,-0.0219,0,-0.0226,0,-0.0222,-0.0244,-0.0244,0,0,0,-0.0075,-0.0101,-0.0112,-0.0052,-0.0059,-0.0114,-0.0094,-0.0185,-0.0191,-0.0227,-0.0227,-0.0231,-0.0224,-0.0244,-0.0245,-0.0367,-0.0367,0,0,-0.0072,-0.0068,-0.0107,-0.0116,-0.0072,-0.0092,-0.0095,-0.0188,-0.0199,-0.0227,-0.0233,-0.0226,-0.0245,-0.0246,-0.0366,-0.0367,0,0,0,-0.0052,-0.0066,-0.0074,-0.0111,-0.0111,-0.0093,-0.0097,-0.0195,-0.0196,-0.0234,-0.0228,-0.0246,-0.0247,-0.0366,-0.0367,-0.0326,0,0,0,-0.0051,-0.0053,-0.0073,-0.0072,-0.0109,-0.0146,-0.0101,-0.019,-0.02,-0.0227,-0.0246,-0.0248,-0.0365,-0.0366,-0.0326,-0.0259,0,0,0,-0.0049,-0.0052,-0.0057,-0.0071,-0.0085,-0.0144,-0.0151,-0.0192,-0.0195,-0.0244,-0.0249,-0.0365,-0.0366,-0.0326,-0.0261,-0.0233,0,0,0,-0.0045,-0.0064,-0.0057,-0.0084,-0.0085,-0.0133,-0.0151,-0.0201,-0.0244,-0.0246,-0.0365,-0.0366,-0.0326,-0.0262,-0.0234,-0.0168,0,0,0,-0.0067,-0.0067,-0.0083,-0.0078,-0.0099,-0.0127,-0.0171,-0.0231,-0.0273,-0.034,-0.0343,-0.0326,-0.0261,-0.0233,-0.0237,0,0,0,0,-0.0089,-0.0087,-0.0101,-0.0107,-0.0143,-0.0149,-0.0214,-0.0249,-0.0313,-0.0299,-0.0361,-0.0321,-0.0304,-0.0273,-0.0372,-0.0372,-0.0372,-0.0372,-0.0372,-0.0091,-0.0097,-0.0102,-0.0107,-0.0134,-0.0182,-0.0208,-0.0266,-0.0325,-0.0353,-0.0316,-0.0298,-0.027,-0.0375,-0.0375,-0.0375,-0.0375,-0.0375,-0.0375,-0.0079,-0.0066,-0.0066,-0.007,-0.0082,-0.0117,-0.0185,-0.0227,-0.0269,-0.032,-0.0308,-0.0268,-0.0372,-0.0372,-0.0373,-0.0373,-0.0373,-0.0374,-0.0374,-0.005,-0.004,-0.004,-0.0019,-0.0012,-0.0052,-0.0038,-0.0112,-0.0196,-0.0191,-0.0168,-0.0257,-0.0227,-0.0197,-0.0197,-0.0197,-0.0196,-0.0196,-0.0196,-0.0016,-0.0011,0.0018,0.0039,0.0059,0.0078,0.0048,0.0033,-0.0047,-0.0081,-0.0166,-0.0237,-0.0243,-0.0217,-0.019,-0.0191,-0.0192,-0.0192,-0.0193,0.0017,0.003,0.0077,0.0104,0.0155,0.0173,0.0162,0.0145,0.0134,0.0104,-0.0037,-0.0047,-0.0041,-0.0051,-0.0018,0.007,0.0071,0.0072,0,0.005,0.0058,0.0134,0.0185,0.0235,0.023,0.0259,0.0241,0.0151,0.0139,0.0099,-0.0062,-0.0069,-0.0066,-0.0073,-0.0036,0,0,0,0.0078,0.0105,0.0165,0.0219,0.0267,0.027,0.0265,0.0259,0.0164,0.0192,0.0098,0.0091,-0.0042,-0.0172,-0.0184,-0.0191,-0.0149,0,0]}]]